Calgary, Alberta

2:49 PM MDT on September 19, 2017 (GMT -0600)
Calgary International

Weather History for CYYC - October, 2012

Change the Weather History Date:

Thursday, October 11, 2012

  Actual Average Record
Temperature  
Mean Temperature 30 °F -  
Max Temperature 37 °F 48 °F 64 °F (2004)
Min Temperature 24 °F 25 °F 17 °F (2008)
Degree Days  
Heating Degree Days 34    
Moisture  
Dew Point 28 °F    
Average Humidity 90    
Maximum Humidity 100    
Minimum Humidity 80    
Precipitation  
Precipitation 0.08 in 0.02 in - ()
Sea Level Pressure  
Sea Level Pressure 30.21 in    
Wind  
Wind Speed 9 mph ()    
Max Wind Speed 18 mph    
Max Gust Speed 26 mph    
Visibility 6.1 miles    
Events Snow    
Averages and records for this station are not official NWS values.
T = Trace of Precipitation, MM = Missing Value Source: Averaged Metar Reports

Daily Weather History Graph

Daily Weather History Graph

Search for Another Location

Airport or City:

Trip Planner

Search our weather history database for the weather conditions in past years. The results will help you decide how hot, cold, wet, or windy it might be!

Date:

Astronomy

Oct. 11, 2012 Rise Set
Actual Time 7:53 AM MDT 6:50 PM MDT
Civil Twilight 7:20 AM MDT 7:23 PM MDT
Nautical Twilight 6:42 AM MDT 8:01 PM MDT
Astronomical Twilight 6:03 AM MDT 8:40 PM MDT
Moon 3:11 AM MDT (10/11) 4:50 PM MDT (10/11)
Length of Visible Light 12h 03m
Length of Day
10h 56m
Waning Crescent, 18% of the Moon is Illuminated
Oct 11
Waning Crescent
Oct 15
New
Oct 21
First Quarter
Oct 29
Full
Nov 6
Last Quarter

Hourly Weather History & Observations

Time (MDT) Temp. Windchill Dew Point Humidity Pressure Visibility Wind Dir Wind Speed Gust Speed Precip Events Conditions
12:00 AM 26.6 °F - 24.8 °F 93% 30.41 in 3.0 mi Calm Calm - N/A Snow Light Snow
1:00 AM 26.6 °F - 24.8 °F 93% 30.41 in 2.5 mi South 2.3 mph - N/A Snow Light Snow
2:00 AM 24.8 °F 20.5 °F 24.8 °F 100% 30.41 in 2.5 mi ENE 3.5 mph - N/A Snow Light Snow
3:00 AM 26.6 °F 21.2 °F 24.8 °F 93% 30.40 in 2.5 mi SSE 4.6 mph - N/A Snow Light Snow
4:00 AM 26.6 °F 17.5 °F 24.8 °F 93% 30.39 in 2.5 mi SSE 9.2 mph - N/A Snow Light Snow
5:00 AM 26.6 °F 16.8 °F 23.0 °F 86% 30.39 in 2.5 mi SE 10.4 mph - N/A Snow Light Snow
6:00 AM 25 °F - 23 °F 90% 30.37 in 2 mi SE 11.5 mph - - Snow Light Snow
6:00 AM 24.8 °F 13.4 °F 23.0 °F 93% 30.37 in 2.5 mi SE 12.7 mph - N/A Snow Light Snow
7:00 AM 24.8 °F 12.9 °F 23.0 °F 93% 30.35 in 2.5 mi SSE 13.8 mph 21.9 mph N/A Snow Light Snow
7:42 AM 24.8 °F 11.1 °F 24.8 °F 100% 30.33 in 1.8 mi SSE 18.4 mph 26.5 mph N/A Snow Light Snow
8:00 AM 24.8 °F 12.4 °F 24.8 °F 100% 30.33 in 2.5 mi SSE 15.0 mph 24.2 mph N/A Snow Light Snow
9:00 AM 26.6 °F 14.7 °F 24.8 °F 93% 30.31 in 2.5 mi SSE 15.0 mph 24.2 mph N/A Snow Light Snow
10:00 AM 26.6 °F 13.4 °F 26.6 °F 100% 30.29 in 2.5 mi South 18.4 mph 26.5 mph N/A Snow Light Snow
10:16 AM 26.6 °F 13.8 °F 26.6 °F 100% 30.29 in 2.0 mi South 17.3 mph 26.5 mph N/A   Overcast
10:35 AM 28.4 °F 17.0 °F 26.6 °F 93% 30.27 in 3.0 mi SSE 15.0 mph 20.7 mph N/A   Overcast
10:46 AM 28.4 °F 16.6 °F 26.6 °F 93% 30.27 in 5.0 mi South 16.1 mph 24.2 mph N/A   Overcast
11:00 AM 28.4 °F 17.5 °F 26.6 °F 93% 30.26 in 5.0 mi South 13.8 mph 24.2 mph N/A   Overcast
12:00 PM 30 °F - 27 °F 84% 30.23 in 10 mi South 17.3 mph - -   Partly Cloudy
12:00 PM 30.2 °F 18.9 °F 26.6 °F 86% 30.23 in 10.0 mi South 16.1 mph 24.2 mph N/A   Overcast
1:00 PM 30.2 °F 18.5 °F 26.6 °F 86% 30.19 in 10.0 mi South 17.3 mph 24.2 mph N/A   Overcast
1:50 PM 32.0 °F 20.8 °F 28.4 °F 87% 30.15 in 10.0 mi South 17.3 mph 24.2 mph N/A   Overcast
2:00 PM 32.0 °F 21.6 °F 28.4 °F 87% 30.15 in 10.0 mi South 15.0 mph 26.5 mph N/A   Overcast
3:00 PM 33.8 °F 23.5 °F 30.2 °F 87% 30.11 in 10.0 mi SSW 16.1 mph 24.2 mph N/A   Overcast
4:00 PM 35.6 °F 25.9 °F 30.2 °F 81% 30.08 in 10.0 mi SSW 16.1 mph - N/A   Overcast
4:38 PM 35.6 °F 27.5 °F 32.0 °F 87% 30.06 in 10.0 mi South 11.5 mph 18.4 mph N/A   Overcast
5:00 PM 37.4 °F 29.3 °F 32.0 °F 81% 30.04 in 10.0 mi South 12.7 mph - N/A   Overcast
6:00 PM 37 °F - 33 °F 80% 30.02 in 28 mi South 13.8 mph - -   Mostly Cloudy
6:00 PM 37.4 °F 29.3 °F 33.8 °F 87% 30.02 in 30.0 mi South 12.7 mph 23.0 mph N/A   Mostly Cloudy
7:00 PM 37.4 °F 29.3 °F 33.8 °F 87% 30.00 in 30.0 mi South 12.7 mph 19.6 mph N/A   Mostly Cloudy
8:00 PM 37.4 °F 30.3 °F 33.8 °F 87% 29.98 in 15.0 mi SSW 10.4 mph - N/A   Mostly Cloudy
9:00 PM 37.4 °F 30.3 °F 33.8 °F 87% 29.95 in 10.0 mi SSW 10.4 mph - N/A   Mostly Cloudy
10:00 PM 35.6 °F 29.2 °F 33.8 °F 93% 29.93 in 10.0 mi SW 8.1 mph - N/A   Overcast
11:00 PM 35.6 °F 29.9 °F 33.8 °F 93% 29.90 in 10.0 mi SW 6.9 mph - N/A   Overcast